[[{"header":{"parameterUnit":"m.s-1","parameterCategory":1,"la1":30.2991,"la2":30.254,"lo1":-89.0895,"lo2":-89.0444,"dy":0.0017,"dx":0.0017,"nx":28,"ny":28,"refTime":"2025-05-26T21:00:00:Z","depth":0,"parameterNumber":2,"parameterNumberName":"U-component_of_WINDS"},"data":[0,0,0,0,0,0,0,0,0,0,0,0,0,0,0,0,0,0,0,0,0,0,0,0,0,0,0,0,0,0,0,0,0,0,0,0,0,0,0,0,0,0,0,0,0,0,0,0,0,0,0,0,0,0,0,0,0,0,-0.0897,-0.0897,0,-0.0853,-0.0853,-0.0852,-0.0829,-0.0829,-0.0829,-0.0829,-0.0785,-0.0784,-0.0783,0,0,0,0,0,0,0,0,0,0,0,0,0,-0.0965,-0.0964,-0.0897,-0.0897,-0.0896,-0.0853,-0.0853,-0.0852,-0.0829,-0.0829,-0.0829,-0.0829,-0.0785,-0.0784,-0.0782,0,0,0,0,0,0,0,0,0,0,0,0,0,-0.093,-0.0963,-0.0898,-0.088,-0.0878,-0.0853,-0.0853,-0.0852,-0.0829,-0.0829,-0.0829,-0.0829,-0.0786,-0.0784,-0.0782,-0.0773,0,0,-0.0777,-0.0776,0,0,0,0,0,0,0,0,-0.0932,-0.0927,-0.0883,-0.0881,-0.0879,-0.0847,-0.086,-0.0825,-0.0829,-0.0848,-0.0829,-0.0829,-0.0805,-0.0802,-0.0794,-0.0771,-0.0769,-0.0777,-0.0776,-0.0775,-0.0775,0,0,0,0,0,0,0,-0.0934,-0.0929,-0.088,-0.0882,-0.088,-0.0875,-0.087,-0.0853,-0.0827,-0.0846,-0.0844,-0.0839,-0.0804,-0.0796,-0.0793,-0.0768,-0.0777,-0.0775,-0.0774,-0.0774,-0.0737,-0.0737,0,0,0,0,0,0,-0.0939,-0.0931,-0.0881,-0.0879,-0.0905,-0.0874,-0.0868,-0.0857,-0.0827,-0.0823,-0.0839,-0.0838,-0.0799,-0.0795,-0.0791,-0.0779,-0.0775,-0.0773,-0.0772,-0.0737,-0.0737,-0.0737,0,0,0,0,0,0,-0.0941,-0.0935,-0.0883,-0.0904,-0.0897,-0.0872,-0.086,-0.0856,-0.0847,-0.0822,-0.0818,-0.0835,-0.0798,-0.0794,-0.0778,-0.0777,-0.0773,-0.0771,-0.0736,-0.0737,-0.0737,-0.0754,0,0,0,0,0,0,-0.0943,-0.0936,-0.0931,-0.0904,-0.0896,-0.087,-0.086,-0.0855,-0.0844,-0.0843,-0.0817,-0.0813,-0.0798,-0.078,-0.0776,-0.0775,-0.077,-0.0736,-0.0736,-0.0737,-0.0753,-0.0755,-0.0756,0,0,0,0,0,-0.0945,-0.0938,-0.0931,-0.0925,-0.089,-0.087,-0.0865,-0.0848,-0.0844,-0.084,-0.0824,-0.0814,-0.0778,-0.0779,-0.0774,-0.0772,-0.0736,-0.0736,-0.0737,-0.0753,-0.0754,-0.0756,0,0,0,0,0,0,-0.0965,-0.0934,-0.0926,-0.0909,-0.0892,-0.0866,-0.086,-0.085,-0.0834,-0.0833,-0.0812,-0.0807,-0.0793,-0.0781,-0.0783,-0.0762,-0.0756,-0.0755,-0.077,-0.0772,-0.0773,-0.0776,-0.0768,0,0,0,0,0,-0.0967,-0.0952,-0.0926,-0.0914,-0.0906,-0.0885,-0.0875,-0.0863,-0.0845,-0.0838,-0.0821,-0.0804,-0.0789,-0.078,-0.0764,-0.0752,-0.0746,-0.0748,-0.0749,-0.075,-0.075,-0.0743,-0.0744,-0.0737,-0.0737,-0.0737,0,0,-0.0972,-0.0953,-0.0945,-0.0918,-0.0903,-0.089,-0.0879,-0.0864,-0.0854,-0.0836,-0.082,-0.0807,-0.0787,-0.0773,-0.0766,-0.0763,-0.0751,-0.075,-0.0751,-0.075,-0.0744,-0.0744,-0.0745,-0.0737,-0.0737,-0.0737,0,0,-0.0973,-0.0957,-0.0946,-0.0932,-0.091,-0.0896,-0.0894,-0.0869,-0.086,-0.0843,-0.083,-0.0818,-0.0792,-0.0779,-0.0769,-0.0768,-0.0758,-0.0764,-0.077,-0.0764,-0.0764,-0.0765,-0.0765,-0.0765,-0.0763,-0.0763,-0.0763,0,-0.0982,-0.096,-0.0941,-0.0928,-0.0917,-0.09,-0.0889,-0.0877,-0.0851,-0.0845,-0.0841,-0.081,-0.0795,-0.0778,-0.0778,-0.077,-0.0768,-0.0766,-0.0766,-0.0766,-0.0766,-0.0766,-0.0766,-0.0764,-0.0764,-0.0764,-0.0764,0,-0.0972,-0.0957,-0.0951,-0.0927,-0.0915,-0.0903,-0.0884,-0.0875,-0.0865,-0.0852,-0.0836,-0.0818,-0.08,-0.0795,-0.0785,-0.0778,-0.0776,-0.0769,-0.0763,-0.0768,-0.0768,-0.0767,-0.0765,-0.0765,-0.0765,-0.0764,0,0,-0.0983,-0.095,-0.0948,-0.0938,-0.0913,-0.0902,-0.089,-0.0872,-0.0865,-0.0849,-0.0839,-0.0819,-0.0813,-0.0801,-0.079,-0.0785,-0.0786,-0.0779,-0.0778,-0.0781,-0.0778,-0.0784,-0.0784,-0.078,-0.078,-0.078,-0.078,0,-0.0981,-0.0958,-0.0942,-0.0926,-0.0913,-0.0898,-0.0888,-0.0872,-0.086,-0.0848,-0.0835,-0.0821,-0.0814,-0.0807,-0.0801,-0.0787,-0.0785,-0.0787,-0.0771,-0.0771,-0.0777,-0.0784,-0.0789,-0.079,-0.078,-0.078,-0.078,0,-0.0976,-0.096,-0.0943,-0.0921,-0.0915,-0.0906,-0.0889,-0.0878,-0.0861,-0.0852,-0.0841,-0.0829,-0.0817,-0.0812,-0.0796,-0.0798,-0.0791,-0.0783,-0.0783,-0.078,-0.0775,-0.0782,-0.079,-0.079,-0.0779,-0.0779,-0.0779,0,-0.0986,-0.0961,-0.0948,-0.0939,-0.0914,-0.0908,-0.0897,-0.088,-0.0871,-0.0856,-0.085,-0.0835,-0.0826,-0.0815,-0.08,-0.0798,-0.0786,-0.078,-0.0779,-0.078,-0.0777,-0.0777,-0.0784,-0.0772,-0.0772,-0.0772,-0.0772,0,-0.0986,-0.0976,-0.0952,-0.0944,-0.0933,-0.0916,-0.0905,-0.0893,-0.0879,-0.0869,-0.0855,-0.0846,-0.0827,-0.0816,-0.0804,-0.0793,-0.0789,-0.0783,-0.078,-0.0784,-0.0785,-0.0779,-0.0779,-0.0772,-0.0772,-0.0772,-0.0772,0,-0.0996,-0.0979,-0.0964,-0.0941,-0.0935,-0.0928,-0.091,-0.0902,-0.089,-0.0877,-0.0873,-0.0854,-0.0841,-0.0825,-0.0806,-0.0799,-0.0789,-0.0784,-0.0795,-0.0793,-0.0794,-0.0794,-0.0797,-0.0797,-0.0785,-0.0785,-0.0785,0,-0.0996,-0.0988,-0.0966,-0.0958,-0.0948,-0.0935,-0.0926,-0.0909,-0.09,-0.0881,-0.0876,-0.0862,-0.0849,-0.0829,-0.0814,-0.08,-0.0795,-0.0797,-0.0793,-0.0798,-0.0796,-0.0796,-0.0796,-0.0798,-0.0798,-0.0798,-0.0799,0,-0.1,-0.0993,-0.0979,-0.0964,-0.0953,-0.094,-0.0927,-0.0921,-0.0902,-0.0893,-0.0879,-0.087,-0.0851,-0.0838,-0.0822,-0.0812,-0.0803,-0.08,-0.08,-0.0804,-0.081,-0.0807,-0.0798,-0.08,-0.08,-0.08,-0.08,-0.08,-0.1005,-0.0998,-0.0981,-0.0967,-0.0956,-0.0944,-0.0936,-0.0923,-0.0911,-0.0895,-0.0886,-0.0873,-0.0858,-0.0836,-0.0826,-0.0816,-0.0813,-0.0812,-0.0811,-0.0811,-0.0813,-0.0812,-0.0814,-0.0814,-0.0813,-0.0813,-0.0813,0,-0.1008,-0.0997,-0.0985,-0.0967,-0.0956,-0.0949,-0.0934,-0.0926,-0.0914,-0.0901,-0.0889,-0.0874,-0.0862,-0.0846,-0.0833,-0.0828,-0.0823,-0.0825,-0.0825,-0.0823,-0.0817,-0.0819,-0.0829,-0.0829,-0.0829,-0.0829,-0.0829,-0.0829,-0.1009,-0.0997,-0.0988,-0.097,-0.0959,-0.0946,-0.0938,-0.0928,-0.0917,-0.0901,-0.089,-0.0881,-0.0867,-0.0852,-0.0841,-0.0837,-0.0833,-0.0836,-0.083,-0.0825,-0.0823,-0.0822,-0.0824,-0.0835,-0.0835,-0.0837,-0.0838,-0.0838]},{"header":{"parameterUnit":"m.s-1","parameterCategory":1,"la1":30.2991,"la2":30.254,"lo1":-89.0895,"lo2":-89.0444,"dy":0.0017,"dx":0.0017,"nx":28,"ny":28,"refTime":"2025-05-26T21:00:00:Z","depth":0,"parameterNumber":3,"parameterNumberName":"V-component_of_WINDS"},"data":[0,0,0,0,0,0,0,0,0,0,0,0,0,0,0,0,0,0,0,0,0,0,0,0,0,0,0,0,0,0,0,0,0,0,0,0,0,0,0,0,0,0,0,0,0,0,0,0,0,0,0,0,0,0,0,0,0,0,6.5024,6.5023,0,6.4942,6.4941,6.494,6.4871,6.487,6.487,6.4869,6.4778,6.4776,6.4774,0,0,0,0,0,0,0,0,0,0,0,0,0,6.5118,6.5116,6.5024,6.5023,6.5022,6.4942,6.4941,6.494,6.4871,6.487,6.487,6.4869,6.4778,6.4776,6.4774,0,0,0,0,0,0,0,0,0,0,0,0,0,6.506,6.5116,6.5024,6.4979,6.4974,6.4942,6.4941,6.4939,6.4872,6.487,6.4869,6.4868,6.4779,6.4776,6.4774,6.4779,0,0,6.4766,6.4765,0,0,0,0,0,0,0,0,6.5064,6.5057,6.4986,6.4982,6.4976,6.4916,6.494,6.4885,6.4872,6.491,6.4869,6.4868,6.4824,6.4818,6.4804,6.4775,6.4771,6.4766,6.4764,6.4763,6.4762,0,0,0,0,0,0,0,6.5068,6.506,6.4991,6.4985,6.4979,6.4961,6.4951,6.493,6.4874,6.4907,6.4902,6.4893,6.4821,6.4807,6.4802,6.477,6.4766,6.4763,6.4762,6.4761,6.4742,6.4743,0,0,0,0,0,0,6.5079,6.5064,6.4994,6.4989,6.5018,6.496,6.4949,6.4936,6.4874,6.4864,6.4894,6.489,6.4812,6.4805,6.4798,6.4801,6.4763,6.476,6.4759,6.4741,6.4742,6.4743,0,0,0,0,0,0,6.5082,6.5074,6.4997,6.5025,6.5014,6.4959,6.4945,6.4935,6.4921,6.4865,6.4854,6.489,6.4811,6.4802,6.4785,6.4797,6.4759,6.4757,6.4739,6.4741,6.4742,6.4807,0,0,0,0,0,0,6.5085,6.5075,6.5078,6.5026,6.5013,6.4987,6.4946,6.4934,6.4918,6.4912,6.4858,6.4848,6.4809,6.479,6.4783,6.4793,6.4755,6.4738,6.474,6.4742,6.4803,6.481,6.4816,0,0,0,0,0,6.5088,6.5097,6.5078,6.507,6.5015,6.4988,6.498,6.4938,6.4919,6.492,6.4884,6.485,6.4797,6.4788,6.478,6.4789,6.4737,6.4739,6.4742,6.48,6.4809,6.4816,0,0,0,0,0,0,6.5148,6.5089,6.5067,6.506,6.503,6.4977,6.4977,6.4948,6.4921,6.4916,6.4862,6.4851,6.484,6.4813,6.4804,6.4792,6.4763,6.4764,6.481,6.4818,6.4824,6.483,6.4753,0,0,0,0,0,6.5162,6.5147,6.5095,6.5093,6.508,6.5031,6.5018,6.4988,6.4954,6.494,6.4902,6.4869,6.4845,6.483,6.4804,6.48,6.4787,6.4802,6.4809,6.4814,6.4815,6.4812,6.4818,6.4751,6.4751,6.4751,0,0,6.5187,6.5153,6.5146,6.5105,6.5078,6.5062,6.5021,6.5005,6.4993,6.4937,6.492,6.4891,6.485,6.484,6.4833,6.4817,6.4831,6.4817,6.4822,6.482,6.4815,6.4821,6.4827,6.4753,6.4752,6.4752,0,0,6.5226,6.5199,6.5195,6.517,6.5131,6.5099,6.5099,6.5051,6.5031,6.5013,6.4971,6.4955,6.4914,6.4887,6.4868,6.49,6.4868,6.4893,6.4927,6.4924,6.493,6.4934,6.4946,6.495,6.4895,6.4895,6.4895,0,6.5261,6.5238,6.5196,6.5185,6.5167,6.5119,6.5115,6.5092,6.5046,6.5035,6.5018,6.4968,6.4936,6.492,6.4928,6.4914,6.4911,6.4898,6.4933,6.4937,6.494,6.495,6.4955,6.4898,6.4898,6.4898,6.4897,0,6.5284,6.5269,6.5271,6.5231,6.5214,6.5206,6.5162,6.515,6.5122,6.5092,6.5075,6.5037,6.5004,6.4998,6.4969,6.4977,6.4969,6.4943,6.4912,6.4951,6.496,6.4963,6.4903,6.4902,6.4901,6.49,0,0,6.5356,6.5296,6.5297,6.5279,6.5234,6.5221,6.5211,6.5181,6.5172,6.5143,6.5132,6.5101,6.5078,6.5057,6.5025,6.5023,6.5052,6.4997,6.4995,6.5009,6.5059,6.5078,6.5084,6.5031,6.5031,6.5032,6.5062,0,6.5387,6.5369,6.5332,6.5324,6.531,6.5265,6.5257,6.5228,6.52,6.5182,6.5151,6.513,6.5101,6.5088,6.5084,6.5049,6.5061,6.5046,6.5019,6.5019,6.5031,6.5088,6.5108,6.5139,6.5066,6.5066,6.5067,0,6.542,6.5397,6.5389,6.5348,6.534,6.5333,6.5304,6.5288,6.5255,6.5235,6.5213,6.5179,6.5166,6.5139,6.5119,6.511,6.5097,6.5079,6.5079,6.5074,6.5044,6.5084,6.5148,6.5152,6.5072,6.5071,6.5071,0,6.5474,6.544,6.5432,6.5418,6.5369,6.5365,6.5344,6.531,6.5295,6.5269,6.5259,6.5231,6.5216,6.5194,6.5154,6.5138,6.5138,6.5108,6.512,6.5122,6.5121,6.5122,6.5183,6.5114,6.5114,6.5114,6.5114,0,6.5512,6.5509,6.5455,6.545,6.5445,6.5403,6.5399,6.5374,6.5344,6.5332,6.5291,6.5281,6.5228,6.5211,6.5179,6.5168,6.5161,6.5144,6.5135,6.5147,6.5149,6.5137,6.5134,6.5115,6.5115,6.5115,6.5115,0,6.557,6.5534,6.5522,6.5478,6.5467,6.5466,6.5427,6.542,6.5391,6.5377,6.5371,6.5325,6.5303,6.5262,6.5227,6.5205,6.5201,6.5186,6.5213,6.5208,6.5223,6.5222,6.5278,6.5283,6.5212,6.5213,6.5213,0,6.5596,6.5593,6.555,6.5541,6.5523,6.5507,6.5493,6.5452,6.5438,6.5402,6.5399,6.5375,6.5353,6.532,6.5283,6.5257,6.5241,6.5262,6.5236,6.5249,6.5241,6.5242,6.5241,6.5267,6.5268,6.5269,6.527,0,6.5647,6.563,6.5613,6.559,6.5575,6.5554,6.5531,6.5525,6.5478,6.5465,6.5444,6.5428,6.5395,6.5371,6.534,6.5316,6.5285,6.5279,6.528,6.5292,6.5308,6.53,6.5229,6.5277,6.5277,6.5276,6.5276,6.5275,6.569,6.5686,6.5656,6.5638,6.5617,6.5597,6.5589,6.5561,6.5544,6.5515,6.5491,6.5473,6.544,6.5396,6.5375,6.5359,6.5344,6.5346,6.5346,6.5347,6.5353,6.5312,6.5353,6.5353,6.5352,6.5352,6.5352,0,6.5738,6.5718,6.5702,6.5673,6.5659,6.5635,6.5608,6.5598,6.5583,6.5557,6.5537,6.5514,6.5492,6.5454,6.5428,6.5423,6.5408,6.5417,6.5417,6.5412,6.5367,6.5369,6.543,6.543,6.543,6.543,6.543,6.543,6.5762,6.5755,6.5735,6.5717,6.5696,6.568,6.5667,6.5648,6.5627,6.5604,6.5586,6.5563,6.5532,6.5505,6.5483,6.5472,6.5464,6.5479,6.5463,6.5422,6.5415,6.5408,6.5409,6.5477,6.5477,6.5509,6.5509,6.551]}]]